User: anonymous   Login
Location: CNYAC Observatory
(43.2150°N, 74.9500°W)
Time: 19:34:19
(UTC-05:00)
Language:

Cosmos 1300 Rocket - Orbit

View from above orbital plane
View from above orbital plane
View from above satellite
View from above satellite

Ground track
Ground track

The orbit data is extracted from the following two-line orbital elements,

1 12786U 81082B   15060.87210599  .00000567  00000-0  64492-4 0  9993
2 12786 082.4880 037.6788 0018726 137.8897 222.3761 14.84375637810439
Epoch (UTC): 01 March 2015 20:55:49
Eccentricity: 0.0018726
inclination: 82.4880°
perigee height: 602 km
apogee height: 628 km
right ascension of ascending node: 37.6788°
argument of perigee: 137.8897°
revolutions per day: 14.84375637
mean anomaly at epoch: 222.3761°
orbit number at epoch: 81043

The dashed part of the orbit path shows where the satellite is in the earth's shadow,  

DLR